Weather in Turtkul

Uzbekistan     39°58′57″N   66°48′12″E
temp.,
°C
wind,
m/s
gust,
m/s
humid.,
%
clouds,
%
prec.,
mm/h
press.,
hPa
HPBL,
m
22 april, thu
thu2223:00+10ne711460 0.0 1022415
02:00+7ne611670 0.0 1023362
05:00+6ne511690 0.0 1024273
08:00+9ene710540 0.0 1024435
11:00+16ene910320 0.0 1023922
14:00+20ene89240 0.0 10221138
17:00+18ene910290 0.0 1023960
20:00+13ene713420 0.0 1024384
23 april, fri
fri2323:00+11ne512510 0.0 1024241
02:00+9ne57602 0.0 1023113
05:00+8ene466456 0.0 102385
08:00+13ene464683 0.0 1022245
11:00+21e33250 0.0 1021897
14:00+24ene43170 0.0 10191652
17:00+23e76210 0.0 10181160
20:00+16ene510395 0.0 1019154
24 april, sat
sat2423:00+14ene5837100 0.0 1019117
02:00+13ene4440100 0.0 101846
05:00+12ene3343100 0.0 101825
08:00+17ene223496 0.0 1019145
11:00+23wsw1221100 0.0 1018748
14:00+24w3316100 0.0 10171208
17:00+25w2214100 0.0 1017925
20:00+17se002585 0.0 101811
25 april, sun
sun2523:00+16ne4436100 0.0 101932
02:00+15ene334053 0.0 101824
05:00+14ene443783 0.0 101833
08:00+19ene3533100 0.0 1019194
11:00+26ene5519100 0.0 10181063
14:00+29ene5518100 0.0 10172151
17:00+27ene7722100 0.0 10171384
20:00+20ene5935100 0.0 1018131
26 april, mon
mon2623:00+18ne51133100 0.0 1017167
02:00+17ne5123797 0.0 1017205
05:00+16ene51246100 0.0 1016186
08:00+20ene61136100 0.0 1016476
11:00+25ene81018100 0.0 10151064
14:00+26ene7819100 0.0 10141134
17:00+26ene892083 0.0 10131061
20:00+20ne510335 0.0 1013133